Location: Namasale
(1.5000°N, 32.6167°E)
Time: 22:18:41
(UTC+00:00)

Tiros 1 - Pass Details

Date: 29 April 2021
Orbit: 630 x 664 km, 48.4° (Epoch: 06 May)

Event Time Altitude Azimuth Distance (km) Brightness Sun altitude
Exits shadow 01:49:50 12° 350° (N) 1,915 9.6 -27.8°
Drops below altitude 10° 01:50:22 10° 355° (N) 2,049 9.8 -27.7°
Sets 01:53:18 0° 13° (NNE) 2,951 10.9 -27.0°
